TimeAKST,TemperatureF,Dew PointF,Humidity,Sea Level PressureIn,VisibilityMPH,Wind Direction,Wind SpeedMPH,Gust SpeedMPH,PrecipitationIn,Events,Conditions,WindDirDegrees,DateUTC
12:53 AM,33.1,30.0,89,29.60,9.0,WSW,24.2,32.2,0.00,Snow,Light Snow,250,2012-12-10 09:53:00
1:15 AM,33.8,30.2,87,29.61,6.0,WSW,25.3,32.2,0.00,Snow,Light Snow,250,2012-12-10 10:15:00
1:42 AM,32.0,28.4,87,29.63,2.5,West,23.0,36.8,0.00,Snow,Light Snow,270,2012-12-10 10:42:00
1:50 AM,32.0,30.2,93,29.63,9.0,West,19.6,-,0.00,Snow,Light Snow,260,2012-12-10 10:50:00
1:51 AM,32.0,30.0,92,29.63,9.0,West,18.4,-,0.00,Snow,Light Snow,260,2012-12-10 10:51:00
2:29 AM,33.8,30.2,87,29.65,9.0,West,21.9,-,0.00,Snow,Light Snow,260,2012-12-10 11:29:00
3:13 AM,33.8,28.4,81,29.67,9.0,West,20.7,-,0.00,Snow,Light Snow,260,2012-12-10 12:13:00
3:53 AM,32.0,28.9,88,29.70,9.0,West,24.2,-,0.00,,Mostly Cloudy,270,2012-12-10 12:53:00
4:20 AM,32.0,28.4,87,29.71,7.0,West,21.9,34.5,0.00,Snow,Light Snow,270,2012-12-10 13:20:00
4:53 AM,32.0,28.0,85,29.74,9.0,West,21.9,-,0.00,Snow,Light Snow,270,2012-12-10 13:53:00
5:53 AM,32.0,28.0,85,29.78,9.0,West,26.5,34.5,0.00,Snow,Light Snow,270,2012-12-10 14:53:00
6:53 AM,32.0,28.0,85,29.81,9.0,West,17.3,-,0.00,Snow,Light Snow,280,2012-12-10 15:53:00
7:51 AM,32.0,28.4,87,29.85,4.0,West,23.0,-,0.00,Snow,Light Snow,280,2012-12-10 16:51:00
7:53 AM,32.0,28.9,88,29.85,4.0,West,25.3,-,0.00,Snow,Light Snow,280,2012-12-10 16:53:00
8:03 AM,32.0,28.4,87,29.85,9.0,WNW,28.8,-,0.00,Snow,Light Snow,290,2012-12-10 17:03:00
8:53 AM,32.0,28.0,85,29.90,9.0,WNW,24.2,-,0.00,Snow,Light Snow,290,2012-12-10 17:53:00
9:53 AM,32.0,28.0,85,29.95,10.0,WNW,18.4,24.2,0.00,,Overcast,290,2012-12-10 18:53:00
10:53 AM,32.0,26.1,79,29.99,10.0,WNW,20.7,-,N/A,,Overcast,300,2012-12-10 19:53:00
11:53 AM,33.1,27.0,78,30.03,10.0,WNW,19.6,-,N/A,,Overcast,300,2012-12-10 20:53:00
12:53 PM,33.1,26.1,75,30.06,10.0,WNW,20.7,-,N/A,,Mostly Cloudy,300,2012-12-10 21:53:00
1:53 PM,33.1,26.1,75,30.09,10.0,WNW,20.7,-,N/A,,Overcast,300,2012-12-10 22:53:00
2:53 PM,33.1,26.1,75,30.13,10.0,WNW,16.1,-,N/A,,Overcast,300,2012-12-10 23:53:00
3:48 PM,33.8,26.6,75,30.15,10.0,West,10.4,-,N/A,,Overcast,280,2012-12-11 00:48:00
3:53 PM,33.1,27.0,78,30.16,10.0,West,9.2,-,N/A,,Overcast,280,2012-12-11 00:53:00
4:53 PM,32.0,28.0,85,30.17,10.0,West,8.1,-,0.00,,Overcast,260,2012-12-11 01:53:00
5:53 PM,32.0,28.0,85,30.21,10.0,WSW,9.2,-,N/A,,Mostly Cloudy,240,2012-12-11 02:53:00
6:53 PM,30.9,28.0,89,30.20,10.0,WNW,4.6,-,N/A,,Overcast,290,2012-12-11 03:53:00
7:01 PM,30.2,28.4,93,30.20,10.0,WNW,5.8,-,N/A,,Overcast,290,2012-12-11 04:01:00
7:23 PM,28.4,26.6,93,30.18,10.0,North,3.5,-,N/A,,Scattered Clouds,350,2012-12-11 04:23:00
7:53 PM,30.0,27.0,88,30.19,10.0,Calm,Calm,-,N/A,,Clear,0,2012-12-11 04:53:00
8:53 PM,30.0,25.0,82,30.18,10.0,SSE,11.5,-,N/A,,Mostly Cloudy,150,2012-12-11 05:53:00
9:53 PM,30.9,27.0,85,30.16,10.0,ESE,6.9,-,N/A,,Mostly Cloudy,120,2012-12-11 06:53:00
10:53 PM,34.0,27.0,75,30.10,10.0,SSE,21.9,28.8,N/A,,Overcast,150,2012-12-11 07:53:00
11:53 PM,35.1,28.0,76,30.05,10.0,SE,23.0,32.2,N/A,,Overcast,140,2012-12-11 08:53:00